sat.trackr.live / text

‹ back to catalog

STARLINK-5607

NORAD 55404 · 2023-014P

PAYLOAD ACTIVE UNKNOWN

§ Identity

Operator
Country
US
Launch date
2023-01-31
Launch site
AFWTR
Launch vehicle
Mass (kg)
RCS (m²)

Purposes: comms

External: N2YO · Heavens-Above · Gunter

§ Orbital elements

Epoch: 2026-09-20T20:03:59.864256Z

Period
96.11 min
Inclination
69.9973°
Eccentricity
0.0003718
Mean motion
14.98326782 rev/d
Perigee alt
569.5 km
Apogee alt
574.6 km
Semi-major
6,950.2 km
B*
4.0279e-5
RAAN
292.5365°
Arg perigee
267.5043°
Mean anomaly
92.5690°
Rev number
20,128

§ Raw data

STARLINK-56071 55404U 23014P   26263.83610954  .00000387  00000+0  40279-4 0  99962 55404  69.9973 292.5365 0003718 267.5043  92.5690 14.98326782201285

JSON: /api/v1/satellites/55404 · /tle

For live sub-satellite position, see the globe view (requires WebGL).

§ Visibility from observer

Set your observer location to see the next 7 days of passes ≥ 10°. The values pass through the URL so the page stays shareable.

No JS? Fill the form by hand. The geolocation button needs JavaScript.